www.pogodaiklimat.ru

Погода и климат >> Архив погоды >> Россия >> Ненецкий АО >> Мыс Микулкин


ПОГОДА на Мысе Микулкин

  • Прогноз погоды на Мысе Микулкин
  • Монитор погоды на Мысе Микулкин
  • Климат города

АРХИВ ПОГОДЫ на Мысе Микулкин

Время (UTC), дата Ветер
(напр.,м/с)
 
Видим.   Явления Облачность Т
(С)
Тd
(С)
f
(%)
Тe
(С)
Тes
(С)
Комфортность P
(гПа)
Po
(гПа)
Тmin
(С)
Tmax
(С)
R
(мм)
R24
(мм)
S
(см)
18 20.06 СВ 9
{12}
1000 м туман ?/? +0.9 +0.4 96 -7 -7 995.7 994.8
21 20.06 СВ 7
{13}
4000 м дождь {туман} 10/10 300 м
[Frnb Ns]
+1.1 +0.8 98 -6 -6 995.4 994.5
00 21.06 СВ 5
{11}
20 км {дождь, туман} 10/10 300 м
[St]
+1.8 +1.4 97 -4 -4 994.9 994.1
03 21.06 СВ 5 20 км 10/4 600 м
[Sc Ac und]
+3.1 +2.4 95 -2 -2 994.9 994.0 +0.8 1
06 21.06 В 3 500 м туман ?/? +3.3 +2.7 96 -1 -1 996.1 995.2
09 21.06 СВ 1 10 км слабый дождь {туман} 10/10 300 м
[Frnb Ns]
+3.2 +2.8 97 +1 +1 997.5 996.7
12 21.06 С 3 4000 м дождь {туман} 10/10 300 м
[Frnb Ns]
+5.3 +4.8 97 +2 +2 998.0 997.1
15 21.06 СВ 6 20 км в посл. час дождь 10/8 600 м
[Sc Ac und]
+4.9 +3.4 90 -0 -0 998.0 997.1 +5.5 5
18 21.06 СВ 9
{11}
20 км {дождь} 10/10 600 м
[Sc]
+3.6 +2.4 92 -3 -3 997.3 996.5
21 21.06 СВ 8
{11}
20 км 10/0
[Ac und]
+4.2 +2.6 89 -2 -2 997.0 996.1
00 22.06 В 7
{11}
20 км 8/0
[Ac trans Ci fib]
+3.9 +2.4 90 -2 -2 996.8 995.9
03 22.06 В 10
{13}
20 км 5/1 300 м
[St Ac trans Ci fib]
+3.8 +2.2 89 -3 -3 996.2 995.4 +3.5
06 22.06 В 12
{16}
500 м туман 10/10 600 м
[Sc]
+2.0 +1.4 96 -6 -6 996.6 995.8 +2.0
09 22.06 В 13
{17}
1000 м туман 10/10 600 м
[Sc]
+2.5 +1.8 95 -6 -6 996.2 995.3
12 22.06 СВ 10
{17}
20 км {туман} 10/10 600 м
[Sc]
+2.4 +1.5 94 -5 -5 996.2 995.3
15 22.06 СВ 10
{16}
20 км 10/10 600 м
[Sc]
+2.5 +1.6 94 -5 -5 995.5 994.6 +3.8
18 22.06 СВ 11
{15}
10 км слабый дождь 10/10 300 м
[Frnb Ns]
+2.2 +1.5 95 -6 -6 994.6 993.7
21 22.06 СВ 11
{15}
4000 м дымка {дождь} 10/10 300 м
[St]
+2.0 +1.5 96 -6 -6 993.1 992.2
00 23.06 СВ 10 4000 м дождь 10/10 300 м
[Frnb Ns]
+2.3 +1.7 96 -5 -5 991.4 990.5
03 23.06 СВ 9
{15}
20 км {дождь} 10/10 300 м
[St]
+2.3 +1.8 96 -5 -5 990.6 989.7 +1.9 3
06 23.06 СВ 9
{13}
500 м туман {дождь} 10/10 300 м
[St]
+3.4 +3.0 97 -4 -4 990.5 989.6
09 23.06 СВ 9
{12}
20 км {туман} 10/10 600 м
[Sc]
+6.2 +4.9 91 0 0 990.8 990.0
12 23.06 С 3
{13}
20 км {туман} 5/4 300 м
[St Ci fib]
+9.3 +7.0 86 +7 +11 991.1 990.3
15 23.06 С 9
{14}
1000 м туман 10/10 600 м
[Sc]
+6.6 +6.0 96 +1 +1 992.0 991.1 +9.7
18 23.06 С 10
{14}
4000 м дымка {туман} 10/0
[Ac und]
+6.0 +5.4 96 -0 -0 992.3 991.5
21 23.06 С 10
{14}
500 м туман 10/10 600 м
[Sc]
+3.1 +2.6 97 -4 -4 992.7 991.9
00 24.06 С 9
{13}
500 м туман 10/10 600 м
[Sc]
+2.8 +2.6 99 -4 -4 994.2 993.3
03 24.06 С 7
{12}
20 км {туман} 10/10 600 м
[Sc]
+2.8 +2.5 98 -4 -4 995.2 994.3 +2.6
06 24.06 С 7
{10}
20 км {туман} 10/10 300 м
[St]
+2.9 +2.5 97 -4 -4 996.4 995.5
09 24.06 СВ 6 20 км 10/10 600 м
[Sc]
+2.6 +2.2 97 -4 -4 997.9 997.0
12 24.06 С 6 20 км 10/10 300 м
[St]
+2.7 +2.1 96 -3 -3 999.7 998.8
15 24.06 С 6 20 км 10/10 300 м
[St]
+2.9 +2.1 94 -3 -3 1001.1 1000.2 +3.2
18 24.06 СВ 6 20 км 10/10 300 м
[St]
+3.0 +2.0 93 -3 -3 1002.3 1001.4
21 24.06 СВ 5 10 км слабая морось 10/10 300 м
[St]
+2.5 +1.8 95 -3 -3 1003.4 1002.5
00 25.06 СВ 4 10 км слабая морось 10/10 300 м
[St]
+2.3 +1.5 94 -3 -3 1004.5 1003.6
03 25.06 С 3 20 км {морось} 10/10 300 м
[St]
+2.3 +1.3 93 -2 -2 1005.3 1004.4 +1.9 0.6
06 25.06 СВ 2 20 км {морось} 10/10 600 м
[Sc]
+2.9 +1.0 87 -0 -0 1006.0 1005.1
09 25.06 ЮВ 2 20 км 10/10 600 м
[Sc]
+3.0 +0.9 86 -0 -0 1007.0 1006.1
12 25.06 ЮВ 3 20 км 10/10 600 м
[Sc]
+3.1 +1.2 87 -1 -1 1007.6 1006.8
15 25.06 ЮВ 3 20 км 10/10 600 м
[Sc]
+2.8 +0.8 87 -1 -1 1007.7 1006.8 +3.9
18 25.06 СВ 3 20 км 9/9 600 м
[Sc]
+2.9 0.0 81 -1 -1 1008.0 1007.2
21 25.06 В 4 20 км 10/10 600 м
[Sc]
+2.0 +0.3 88 -3 -3 1007.8 1006.9
00 26.06 В 4 20 км 3/0
[Ci fib]
+1.6 -0.2 88 -4 -3 1007.4 1006.6
03 26.06 В 3 20 км 8/8 600 м
[Sc]
+2.9 +1.4 90 -1 -1 1006.9 1006.0 +0.9
06 26.06 В 6 20 км 4/3 600 м
[Sc Cs]
+5.1 +2.8 85 0 +2 1006.1 1005.3
09 26.06 В 8
{10}
20 км 3/0
[Cs]
+6.2 +3.4 82 +1 +3 1005.1 1004.2
12 26.06 В 9
{13}
20 км ясно +6.1 +3.1 81 0 +1 1003.5 1002.6
15 26.06 В 8
{12}
20 км 1/0
[Ac trans]
+6.3 +3.1 80 +1 +2 1002.2 1001.3 +6.8
18 26.06 ЮВ 7
{10}
20 км 8/8 600 м
[Sc]
+6.0 +3.5 84 +1 +1 1001.3 1000.4
21 26.06 В 7
{10}
20 км 8/8 600 м
[Sc]
+6.0 +4.0 87 +1 +1 1000.2 999.3
00 27.06 В 7
{10}
20 км 9/8 600 м
[Sc Ac trans]
+5.4 +3.7 89 -0 -0 998.7 997.8
03 27.06 В 6 20 км 8/3 600 м
[Sc Ac trans Ci fib]
+6.4 +3.9 84 +2 +2 997.1 996.2 +5.2
06 27.06 В 6 20 км 4/0
[Ac trans]
+8.9 +5.0 77 +5 +8 995.5 994.7
09 27.06 В 7
{11}
20 км 3/0
[Cc]
+10.3 +5.4 72 +7 +10 994.0 993.2
12 27.06 В 8
{11}
20 км 10/0
[Ac und]
+7.2 +3.6 78 +2 +3 993.0 992.1
15 27.06 В 7
{10}
10 км слабый ливневой дождь 10/10 600 м
[Cb cap]
+5.5 +3.2 85 0 0 992.5 991.6 +10.6

 

Местоположение метеостанции Мыс Микулкин (Ненецкий АО, Россия): широта 67.80 долгота 46.66 высота над уровнем моря 6 м.

В архиве по умолчанию представлена погода на Мысе Микулкин за последнюю неделю. Архивные данные за месяц целиком и за предыдущие месяцы, начиная с января 2011 года, Вы можете получить, выбрав интересующий диапазон дат из раскрывающегося списка и нажав кнопку "Ввод!".

Внимание! Время в таблицах - всемирное. Для получения местного времени необходимо прибавить поправку, которая на Мысе Микулкин равна 3 ч.

Смотрите также архив погоды в соседних городах и на ближайших метеорологических станциях:

Погода в Индиге (Ненецкий АО, Россия) (86 км)
Погода в Шойне (Ненецкий АО, Россия) (105 км)
Погода в Нижней Пеше (Ненецкий АО, Россия) (126 км)
Погода в Бугрино (Ненецкий АО, Россия) (156 км)
Погода в Неси (Ненецкий АО, Россия) (158 км)
Погода в Канином Носе (Ненецкий АО, Россия) (168 км)
Погода в Сенгейском Шаре (Ненецкий АО, Россия) (205 км)
Погода в Коткино (Ненецкий АО, Россия) (209 км)
Погода на Колгуевом Острове (Ненецкий АО, Россия) (216 км)
Погода на Моржовец Острове (Архангельская область, Россия) (216 км)

Пояснения к столбцам:

Ветер - указаны скорость ветра в м/с - средняя за 10 мин, порывы в срок и между сроками (в фигурных скобках) и направление, откуда дует ветер: С - северный, СВ - северо-восточный, В - восточный, ЮВ - юго-восточный, Ю - южный, ЮЗ - юго-западный, З - западный, СЗ - северо-западный.
Видимость - горизонтальная дальность видимости в метрах или километрах. При видимости от 1 до 10 км при отсутствии осадков обычно наблюдается дымка, при ухудшении видимости до 1 км и менее - туман. В сухую погоду видимость может ухудшаться дымом, пылью или мглою.
Явления - указаны атмосферные явления, наблюдавшиеся в срок или в последний час перед сроком; фигурными скобками обозначены явления, наблюдавшиеся между сроками (за 1-3 часа до срока); квадратными скобками обозначены град или гололедные отложения с указанием их диаметра в мм.
Облачность - указаны через наклонную черту общая и нижняя облачность в баллах и высота нижней границы облаков в метрах; квадратными скобками обозначены формы облаков: Ci - перистые, Cs - перисто-слоистые, Cc - перисто-кучевые, Ac - высококучевые, As - высокослоистые, Sc - слоисто-кучевые, Ns - слоисто-дождевые, Cu - кучевые, Cb - кучево-дождевые. Подробнее классификацию облаков см. в Атласе облаков (PDF).
T - Температура воздуха - температура, измеренная на высоте 2 м над землей.
Td - Температура точки росы - температура, при понижении до которой содержащийся в воздухе водяной пар достигнет насыщения.
f - Относительная влажность воздуха - влажноcть воздуха, измеренная на высоте 2 м над землей.
Te - Эффективная температура - температура, которую ощущает одетый по сезону человек в тени. Характеристика душности погоды. При расчете учитывается влияние влажности воздуха и скорости ветра на теплоощущения человека.
Tes - Эффективная температура на солнце - температура, которую ощущает человек, с поправкой на солнечный нагрев. Характеристика знойности погоды. Зависит от высоты солнца над горизонтом, облачности и скорости ветра. Ночью, в пасмурную погоду, а также при ветре 12 м/с и более поправка равна нулю.
P - Атмосферное давление - приведенное к уровню моря атмосферное давление.
Po - Атмосферное давление - измеренное на уровне метеостанции атмосферное давление.
Tmin - Минимальная температура - минимум температуры воздуха на высоте 2 м над землей.
Tmax - Максимальная температура - максимум температуры воздуха на высоте 2 м над землей.
R - Количество осадков - Количество выпавших осадков за период времени, мм. При наведении курсора мыши на число - период времени, за который выпало указанное количество осадков.
R24 - Количество осадков - Количество выпавших осадков за 24 часа, мм.
S - Снежный покров - Высота снежного покрова, см. При наведении курсора мыши на число - состояние снежного покрова и степень покрытия местности в баллах.